Regional Weather Roundup
Issued by NWS Burlington, VT

Home | Current Version | Previous Version | Text Only | Print | Product List | Glossary On
Versions: 1 2 3 4 5 6 7 8 9 10 11 12 13 14 15 16 17 18 19 20 21 22 23 24 25 26 27 28 29 30 31 32 33 34 35 36 37 38 39 40 41 42 43 44 45 46 47 48 49 50
000
ASUS41 KBTV 240310
RWRBTV
VERMONT REGIONAL WEATHER ROUNDUP
NATIONAL WEATHER SERVICE BURLINGTON VT
1100 PM EDT MON APR 23 2018

NOTE: "FAIR" INDICATES FEW OR NO CLOUDS BELOW 12,000 FEET WITH NO
SIGNIFICANT WEATHER AND/OR OBSTRUCTIONS TO VISIBILITY.

* THESE REPORTS ARE NOT UNDER NWS QUALITY CONTROL AND/OR DO NOT
  REPORT WEATHER SUCH AS PRECIPITATION AND FOG.

VTZ001>019-240400-
_____VERMONT_____


CITY           SKY/WX    TMP DP  RH WIND       PRES   REMARKS
BURLINGTON     FAIR      56  12  17 S6        30.29F
MONTPELIER     FAIR      41  23  48 SE3       30.35F
MORRISVILLE    FAIR      32  26  78 SW3       30.32F
ST. JOHNSBURY*   N/A     39  26  59 MISG      30.32F
LYNDONVILLE*   FAIR      42  18  37 CALM      30.34F
MIDDLEBURY*    FAIR      45  23  41 S3        30.31S
RUTLAND*       FAIR      46  22  38 SE12      30.34F
SPRINGFIELD    FAIR      39  28  64 CALM      30.36S
HIGHGATE*      FAIR      44  21  39 SE5       30.28F
NEWPORT*       FAIR      39  24  55 SW7       30.32S
BENNINGTON     FAIR      46  23  40 VRB5      30.35S

_____LAKE CHAMPLAIN_____


CITY           SKY/WX    TMP DP  RH WIND       PRES   REMARKS
BURTON ISLAND*   N/A     52  23  32 SW7         N/A
COLCHESTER RF*   N/A     46  30  53 S15         N/A
DIAMOND ISL*     N/A     52  23  32 S7          N/A

$$

NYZ007-026>031-035-052-083-087-240400-
_____NORTHERN NEW YORK_____


CITY           SKY/WX    TMP DP  RH WIND       PRES   REMARKS
PLATTSBURGH    FAIR      40  23  50 CALM      30.28S
SARANAC LAKE   FAIR      28  21  75 CALM      30.29S
MASSENA        FAIR      40  31  70 CALM      30.27F
OGDENSBURG*    FAIR      42  36  79 CALM      30.25F
POTSDAM*       MOCLDY    43  28  56 SE6       30.26F
WATERTOWN      FAIR      44  28  53 SE3       30.24F
ALBANY         FAIR      58  23  26 S15       30.35S
GLENS FALLS    FAIR      36  28  73 CALM      30.33S

$$
NHZ002-005-011-240400-
_____NEW HAMPSHIRE_____


CITY           SKY/WX    TMP DP  RH WIND       PRES   REMARKS
LEBANON        FAIR      37  25  61 CALM      30.35S
KEENE          FAIR      45  24  43 CALM      30.39S
MT WASHINGTON  PTCLDY    30  16  55 W44         N/A  WCI  13
PLYMOUTH       FAIR      37  31  80 CALM      30.37S
WHITEFIELD     FAIR      31  24  75 CALM      30.34S

$$

_____REGIONAL QUEBEC LOCATIONS_____


CITY           SKY/WX    TMP DP  RH WIND       PRES   REMARKS
MONTREAL       CLEAR     55  19  24 SE5       30.25F
QUEBEC CITY    PTCLDY    36  23  60 NE3       30.26F
SHERBROOKE     CLEAR    N/A N/A N/A E5          N/A

_____REGIONAL ONTARIO LOCATIONS_____


CITY           SKY/WX    TMP DP  RH WIND       PRES   REMARKS
OTTAWA         CLEAR     52  18  25 SW2       30.24F

______KEY______
VSB  - VISIBILITY IN MILES
WCI  - WIND CHILL INDEX
HX   - HEAT INDEX
$$
NNNN



USA.gov is the U.S. government's official web portal to all federal, state and local government web resources and services.